OpenBCM V1.13 (Linux)

Packet Radio Mailbox

DB0FHN

[JN59NK Nuernberg]

 Login: GUEST





  
I0OJJ  > KEPS     02.02.26 02:33l 317 Lines 15172 Bytes #999 (0) @ AMSAT
BID : ORB26033.1
Read: OE5RCO DJ6UX GUEST
Subj: 2Line Orbital Elements 26033.AMSAT
Path: DB0FHN<DB0RKB<DK0WUE<PD0LPM<PI8ZTM<CX2SA<EA2RCF<I0OJJ
Sent: 260202/0021z @:I0OJJ.ITA.EU [Rome] obcm1.13-38-g65b7
From: I0OJJ @ I0OJJ.ITA.EU (Gustavo)
To:   KEPS @ AMSAT
X-Info: This message was generated automatically


QST de W1STR

AMSAT Orbital Elements for Amateur Satellites in TLE Format
From Orbital Analysis Office
New England Sci-Tech STEM Education Center
Natick MA February 02, 2026
To all radio amateurs


These element sets describe the orbits of various satellites 
in use by the amateur radio community. For details see:
www.amsat.org/keplerian-elements-formats/

A daily update of element sets is available at:
www.amsat.org/tle/daily-bulletin.txt
or without bulletin text:
www.amsat.org/tle/dailytle.txt


AO-07
1 07530U 74089B   26032.50816721 -.00000035  00000-0  74551-4 0  9991
2 07530 101.9969  44.3104 0012307  31.2902 127.1554 12.53695574343516
UO-11
1 14781U 84021B   26032.48736765  .00001234  00000-0  13254-3 0  9993
2 14781  97.7882 359.7552 0006039 274.8827  85.1702 14.90362659236915
AO-27
1 22825U 93061C   26032.41565633  .00000134  00000-0  68123-4 0  9996
2 22825  98.7061  99.7840 0009197 134.2470 225.9469 14.30899893687581
FO-29
1 24278U 96046B   26032.49359271  .00000004  00000-0  37351-4 0  9998
2 24278  98.5429 259.8013 0350909  88.4982 275.6318 13.53266236454816
GO-32
1 25397U 98043D   26032.42373859  .00000090  00000-0  59182-4 0  9992
2 25397  98.9976  21.8210 0000481 200.0521 160.0638 14.24395050432009
ISS
1 25544U 98067A   26032.43601913  .00006280  00000-0  12479-3 0  9992
2 25544  51.6317 251.5712 0011128  53.0689 307.1316 15.48319189550710
NO-44
1 26931U 01043C   26032.02782456  .00000164  00000-0  92270-4 0  9991
2 26931  67.0488 236.4275 0007080 266.7118  93.3174 14.31889956270955
SO-50
1 27607U 02058C   26031.85835677  .00001716  00000-0  22100-3 0  9991
2 27607  64.5520 190.6659 0074152 287.3477  71.9528 14.82627521244245
CO-55
1 27844U 03031E   26032.45416380  .00000390  00000-0  18797-3 0  9993
2 27844  98.6771  42.7066 0008946 214.5307 145.5292 14.24233516172356
CO-57
1 27848U 03031J   26031.95342463  .00000336  00000-0  16709-3 0  9992
2 27848  98.6801  42.0343 0008580 235.8429 124.1936 14.23533061171994
RS-22
1 27939U 03042A   26032.52393442  .00001158  00000-0  18795-3 0  9992
2 27939  98.3390 213.0882 0011084 344.6703 100.6642 14.73143420195574
CO-58
1 28895U 05043F   26032.35470504  .00001839  00000-0  29996-3 0  9994
2 28895  98.2765 185.3111 0013166 276.9081  83.0628 14.72147408 81768
CO-65
1 32785U 08021C   26032.48618042  .00006478  00000-0  42683-3 0  9993
2 32785  97.8143  11.3405 0010604 123.9577 236.2660 15.07818654964737
CO-66
1 32791U 08021J   26031.92677967  .00017120  00000-0  63983-3 0  9991
2 32791  97.7471  23.8883 0005590  78.5410 281.6456 15.27414125966459
RS-30
1 32953U 08025A   26032.49251278  .00000023  00000-0  97337-4 0  9996
2 32953  82.5006  79.8540 0018405 245.6498 114.2660 12.43174232802834
SRMSAT
1 37841U 11058D   26031.73055767  .00000455  00000-0  10305-3 0  9996
2 37841  19.9705 165.3954 0011717 142.0272 349.4444 14.11532942738512
ZACUBE-1
1 39417U 13066B   26032.44335801  .00006668  00000-0  53385-3 0  9994
2 39417  97.8150 354.0998 0041357 345.0676  14.9322 14.99834211660370
Delfi-N3xt
1 39428U 13066N   26032.36371575  .00008683  00000-0  79446-3 0  9990
2 39428  97.8355 313.0044 0076286 299.0827  60.2768 14.92996973654346
GOMX-1
1 39430U 13066Q   26032.52003328  .00001844  00000-0  28447-3 0  9996
2 39430  97.6583 241.4781 0130226 152.6379 208.1766 14.68927832649990
LO-74
1 39440U 13066AA  26032.43287298  .00003172  00000-0  30386-3 0  9998
2 39440  97.8767 341.0757 0060443 116.4859 244.2577 14.92516291656732
AO-73
1 39444U 13066AE  26032.46670585  .00009328  00000-0  61527-3 0  9990
2 39444  97.8120   1.4265 0036579 307.2189  52.5702 15.07142684659202
DTUSAT-2
1 40030U 14033W   26032.48737942  .00007668  00000-0  44052-3 0  9990
2 40030  98.0800  21.8640 0007747 352.7851   7.3266 15.12796158632157
EO-80
1 40032U 14033Y   26032.49445344  .00007763  00000-0  44452-3 0  9995
2 40032  98.0687  21.1962 0005646 281.9303  78.1293 15.12922427632137
LILACSAT-2
1 40908U 15049K   26032.55810620  .00016024  00000-0  32271-3 0  9991
2 40908  97.4856  64.5570 0008577  36.7412 323.4424 15.46627700574757
Horyu-4
1 41340U 16012D   26032.11959780  .00063042  00000-0  83757-3 0  9993
2 41340  30.9936 322.5836 0002977   6.1696 353.8992 15.56878916549391
Lapan A3
1 41603U 16040E   26032.51806303  .00003621  00000-0  11920-3 0  9992
2 41603  97.1448  33.2508 0011879 134.5524 225.6691 15.32046158534031
CAS-2T
1 41847U 16066G   26032.19934607  .00001968  00000-0  28509-3 0  9996
2 41847  98.3960 109.4401 0343163 181.8706 178.1227 14.44327694485167
TechnoSat
1 42829U 17042E   26032.43718339  .00003646  00000-0  26780-3 0  9995
2 42829  97.4089 195.4883 0017612 191.6238 168.4584 15.03925803466298
AO-91
1 43017U 17073E   26032.09322578  .00007650  00000-0  35012-3 0  9994
2 43017  97.4914 262.1720 0159655  77.6789 284.2263 15.10044299444831
S-Net D
1 43186U 18014G   26032.29063299  .00005742  00000-0  30972-3 0  9991
2 43186  97.5477 297.9945 0009868 122.0361 238.1831 15.15116002438175
S-Net B
1 43187U 18014H   26032.29953497  .00005133  00000-0  27745-3 0  9998
2 43187  97.5483 297.9852 0010626 118.3060 241.9245 15.15088884438175
S-Net A
1 43188U 18014J   26032.29013254  .00005821  00000-0  31385-3 0  9996
2 43188  97.5491 298.1609 0010467 119.0341 241.1941 15.15122018438174
S-Net C
1 43189U 18014K   26032.30270279  .00004969  00000-0  26866-3 0  9991
2 43189  97.5508 298.2266 0012066 113.2933 246.9571 15.15081224436728
Ten-Koh
1 43677U 18084G   26032.47557263  .00002829  00000-0  21976-3 0  9999
2 43677  98.0710 219.1601 0009041 212.5054 147.5614 15.02178250395788
PO-101
1 43678U 18084H   26032.49663650  .00002903  00000-0  23991-3 0  9992
2 43678  98.1076 223.0446 0007924 240.6701 119.3730 14.99782335395871
QO-100
1 43700U 18090A   26032.35947376  .00000135  00000-0  00000+0 0  9997
2 43700   0.0171  90.1299 0002274 260.6350 295.9723  1.00272489 26314
MinXSS-2
1 43758U 18099A   26032.17666495  .00026859  00000-0  72213-3 0  9999
2 43758  97.4714 105.3171 0009252  41.2954 318.8988 15.37828942393168
AO-95
1 43770U 18099N   26032.39706171  .00010711  00000-0  45235-3 0  9997
2 43770  97.4591  93.3325 0010619 104.5248 255.7167 15.23389561392521
SNUSat 2
1 43782U 18099AA  26032.38870362  .00007389  00000-0  35136-3 0  9999
2 43782  97.4272  87.9449 0011997  56.4492 303.7887 15.19417847392394
SnugLite
1 43784U 18099AC  26032.37096372  .00011307  00000-0  47219-3 0  9991
2 43784  97.4083  88.1664 0004095  63.3896 296.7760 15.23794716392618
ITASat 1
1 43786U 18099AE  26032.37233907  .00007013  00000-0  35687-3 0  9995
2 43786  97.4243  86.6387 0014526 104.7680 255.5164 15.17038856392300
EAGLET 1
1 43790U 18099AJ  26032.08741403  .00004712  00000-0  27974-3 0  9996
2 43790  97.4447  85.3293 0012875  95.7473 264.5226 15.11721833391763
ESEO
1 43792U 18099AL  26032.05902858  .00002569  00000-0  19106-3 0  9994
2 43792  97.4176  75.1788 0013391  79.5093 280.7641 15.03750823391349
JO-97
1 43803U 18099AX  26032.11660101  .00015623  00000-0  55875-3 0  9994
2 43803  97.4341  94.8167 0006902  43.2769 316.9012 15.28868084392805
Suomi 100
1 43804U 18099AY  26032.40790141  .00011161  00000-0  45024-3 0  9993
2 43804  97.4400  93.5055 0011521  45.5860 314.6319 15.24914477392702
ISAT
1 43879U 18111D   26032.35008312  .00040493  00000-0  80648-3 0  9997
2 43879  97.5914 319.2519 0009173  79.7802 280.4481 15.46755310390052
UWE-4
1 43880U 18111E   26032.32226305  .00026495  00000-0  71912-3 0  9990
2 43880  97.5869 315.3623 0011970  91.4241 268.8374 15.37510665389840
Sparrow
1 43881U 18111F   26032.31504779  .00047508  00000-0  85352-3 0  9995
2 43881  97.6108 323.3056 0007852 102.3312 257.8818 15.49701925390186
Prox-1
1 44339U 19036A   26031.87060465  .00013397  00000-0  14352-2 0  9990
2 44339  23.9964 302.3443 0006882 259.5451 100.4272 14.86830967353135
Taurus 1
1 44530U 19059C   26032.49420626  .00006233  00000-0  10434-2 0  9994
2 44530  98.6247 189.1930 0008385  16.9622 343.1861 14.70165264338696
TO-108
1 44881U 19093C   26032.46606501  .00000814  00000-0  98573-4 0  9997
2 44881  97.7690 107.9502 0013721 167.9106 192.2442 14.86250739331256
FloripaSat 1
1 44885U 19093G   26032.48591581  .00007192  00000-0  55096-3 0  9992
2 44885  97.7908 125.9180 0011860 163.9940 196.1661 15.02108749332268
RS-44
1 44909U 19096E   26032.44115861  .00000034  00000-0  82651-4 0  9997
2 44909  82.5177  69.9140 0218623 101.7326 260.8392 12.79746813284988
SALSAT
1 46495U 20068K   26032.45392509  .00008394  00000-0  31533-3 0  9996
2 46495  97.8818  27.5129 0012061  63.4851 296.7622 15.27396367294620
CSS (TIANHE-1)
1 48274U 21035A   26031.38642198  .00028253  00000-0  32371-3 0  9998
2 48274  41.4674  74.8264 0008910  46.9753 313.1831 15.61427822271789
CUTE
1 49263U 21088D   26032.23445050  .00032875  00000-0  35571-3 0  9998
2 49263  97.4287 122.4860 0004642  86.1587 274.0202 15.63516236241177
TeikyoSat 4
1 49396U 21102B   26032.07226489  .00001718  00000-0  11254-3 0  9991
2 49396  97.3845  66.7751 0013436  47.4558 312.7803 15.08929367232192
Z-Sat
1 49399U 21102E   26032.51113316  .00006111  00000-0  31107-3 0  9998
2 49399  97.3521  71.9293 0017241   6.1933 353.9510 15.17036699232865
KOSEN 1
1 49402U 21102H   26032.38875328  .00007548  00000-0  30786-3 0  9993
2 49402  97.3400  77.2390 0013492 333.5536  26.5012 15.24634511233319
HO-113
1 50466U 21131B   26032.54158905  .00000659  00000-0  21789-3 0  9999
2 50466  98.5006 125.7001 0004933 136.3654 223.7926 14.41200209215578
SNUGLITE 2
1 52899U 22065F   26032.38146029  .00001213  00000-0  24044-3 0  9998
2 52899  98.1964 177.6468 0008642  91.2771 268.9421 14.64019875191129
